| time (UTC) | temp F | wind direction | speed knots | gust knots | rain 1hr in | rain 24hr in | rain mn in | humidity % | barometer mb |
| 20260506213058 | 88 | 188 | 2.6 | 6.1 | 0.00 | 0.00 | 0.00 | 72 | 1008.5 |
| 20260506211558 | 89 | 231 | 1.7 | 7.0 | 0.00 | 0.00 | 0.00 | 67 | 1008.6 |
| 20260506210059 | 88 | 144 | 2.6 | 9.6 | 0.00 | 0.00 | 0.00 | 68 | 1008.9 |
| 20260506204628 | 88 | 207 | 3.5 | 7.0 | 0.00 | 0.00 | 0.00 | 70 | 1009.0 |
| 20260506203058 | 88 | 168 | 4.3 | 10.4 | 0.00 | 0.00 | 0.00 | 71 | 1009.0 |
| 20260506201558 | 86 | 205 | 0.9 | 9.6 | 0.00 | 0.00 | 0.00 | 75 | 1009.1 |
| 20260506200057 | 86 | 184 | 1.7 | 7.8 | 0.00 | 0.00 | 0.00 | 74 | 1009.2 |
| 20260506194606 | 86 | 142 | 1.7 | 7.8 | 0.00 | 0.00 | 0.00 | 74 | 1009.3 |
| 20260506193100 | 88 | 185 | 1.7 | 7.8 | 0.00 | 0.00 | 0.00 | 71 | 1009.3 |
| 20260506191559 | 87 | 0 | 1.7 | 8.7 | 0.00 | 0.00 | 0.00 | 72 | 1009.5 |
| 20260506190059 | 87 | 173 | 0.9 | 7.0 | 0.00 | 0.00 | 0.00 | 72 | 1009.7 |
| 20260506184558 | 86 | 165 | 0.9 | 7.0 | 0.00 | 0.00 | 0.00 | 74 | 1009.9 |
| 20260506183106 | 85 | 139 | 0.0 | 5.2 | 0.00 | 0.00 | 0.00 | 75 | 1010.1 |
| 20260506181605 | 85 | 184 | 0.9 | 7.0 | 0.00 | 0.00 | 0.00 | 76 | 1010.4 |
| 20260506180058 | 85 | 0 | 1.7 | 5.2 | 0.00 | 0.00 | 0.00 | 76 | 1010.8 |
| 20260506174557 | 84 | 178 | 1.7 | 4.3 | 0.00 | 0.00 | 0.00 | 79 | 1010.9 |
| 20260506173100 | 83 | 0 | 0.0 | 4.3 | 0.00 | 0.00 | 0.00 | 81 | 1011.1 |
| 20260506171603 | 83 | 187 | 0.0 | 4.3 | 0.00 | 0.00 | 0.00 | 81 | 1011.2 |
| 20260506164603 | 81 | 0 | 0.9 | 4.3 | 0.00 | 0.00 | 0.00 | 83 | 1011.3 |
| 20260506163105 | 81 | 0 | 1.7 | 7.8 | 0.00 | 0.00 | 0.00 | 83 | 1011.3 |
| 20260506161606 | 81 | 0 | 0.0 | 3.5 | 0.00 | 0.00 | 0.00 | 85 | 1011.1 |
| 20260506160057 | 81 | 170 | 0.9 | 4.3 | 0.00 | 0.00 | 0.00 | 83 | 1011.0 |
| 20260506154613 | 81 | 192 | 2.6 | 7.8 | 0.00 | 0.00 | 0.00 | 83 | 1010.9 |
| 20260506153059 | 81 | 0 | 0.9 | 7.0 | 0.00 | 0.00 | 0.00 | 83 | 1010.9 |
| 20260506151558 | 81 | 193 | 0.0 | 4.3 | 0.00 | 0.00 | 0.00 | 83 | 1010.4 |
| 20260506150100 | 81 | 182 | 0.9 | 5.2 | 0.00 | 0.00 | 0.00 | 83 | 1010.3 |
| 20260506144604 | 81 | 174 | 0.9 | 6.1 | 0.00 | 0.00 | 0.00 | 84 | 1010.1 |
| 20260506143057 | 80 | 126 | 0.0 | 7.0 | 0.00 | 0.00 | 0.00 | 85 | 1010.0 |
| 20260506141604 | 80 | 128 | 0.0 | 2.6 | 0.00 | 0.00 | 0.00 | 86 | 1010.0 |
| 20260506140117 | 79 | 178 | 0.0 | 6.1 | 0.00 | 0.00 | 0.00 | 88 | 1010.1 |
| 20260506134559 | 78 | 0 | 0.0 | 7.0 | 0.00 | 0.00 | 0.00 | 90 | 1010.2 |
| 20260506133104 | 77 | 0 | 0.0 | 5.2 | 0.00 | 0.00 | 0.00 | 92 | 1010.3 |
| 20260506131558 | 77 | 149 | 0.9 | 2.6 | 0.00 | 0.00 | 0.00 | 92 | 1010.2 |
| 20260506130059 | 77 | 0 | 0.0 | 3.5 | 0.00 | 0.00 | 0.00 | 92 | 1010.3 |
| 20260506124602 | 77 | 0 | 0.0 | 5.2 | 0.00 | 0.00 | 0.00 | 92 | 1010.2 |
| 20260506123058 | 77 | 171 | 0.0 | 4.3 | 0.00 | 0.00 | 0.00 | 92 | 1010.1 |
| 20260506121557 | 77 | 0 | 0.9 | 4.3 | 0.00 | 0.00 | 0.00 | 92 | 1010.0 |
| 20260506120100 | 76 | 173 | 0.9 | 6.1 | 0.00 | 0.00 | 0.00 | 92 | 1009.8 |
| 20260506114604 | 76 | 170 | 0.9 | 8.7 | 0.00 | 0.00 | 0.00 | 92 | 1009.6 |
| 20260506113102 | 76 | 0 | 0.0 | 5.2 | 0.00 | 0.00 | 0.00 | 92 | 1009.4 |
| 20260506111606 | 76 | 151 | 0.0 | 4.3 | 0.00 | 0.00 | 0.00 | 91 | 1009.3 |
| 20260506110101 | 76 | 148 | 0.0 | 6.1 | 0.00 | 0.00 | 0.00 | 91 | 1009.0 |
| 20260506104600 | 76 | 0 | 0.9 | 5.2 | 0.00 | 0.00 | 0.00 | 91 | 1009.0 |
| 20260506103102 | 76 | 0 | 0.0 | 5.2 | 0.00 | 0.00 | 0.00 | 91 | 1009.0 |
| 20260506101558 | 76 | 0 | 0.9 | 4.3 | 0.00 | 0.00 | 0.00 | 91 | 1008.9 |
| 20260506094559 | 76 | 0 | 0.9 | 6.1 | 0.00 | 0.00 | 0.00 | 90 | 1008.8 |
| 20260506093102 | 76 | 190 | 0.0 | 3.5 | 0.00 | 0.00 | 0.00 | 90 | 1008.8 |
| 20260506091601 | 77 | 175 | 0.0 | 5.2 | 0.00 | 0.00 | 0.00 | 89 | 1008.8 |
| 20260506090108 | 77 | 187 | 1.7 | 6.1 | 0.00 | 0.00 | 0.00 | 89 | 1009.1 |
| 20260506084600 | 77 | 175 | 1.7 | 6.1 | 0.00 | 0.00 | 0.00 | 89 | 1009.2 |
| 20260506083101 | 77 | 178 | 0.9 | 6.1 | 0.00 | 0.00 | 0.00 | 89 | 1009.2 |
| 20260506081600 | 77 | 178 | 1.7 | 7.0 | 0.00 | 0.00 | 0.00 | 89 | 1009.3 |
| 20260506073059 | 77 | 0 | 1.7 | 8.7 | 0.00 | 0.00 | 0.00 | 88 | 1009.6 |
| 20260506071558 | 78 | 180 | 0.9 | 7.0 | 0.00 | 0.00 | 0.00 | 88 | 1009.7 |
| 20260506061602 | 78 | 178 | 0.9 | 7.0 | 0.00 | 0.00 | 0.00 | 87 | 1010.2 |
| 20260506050104 | 78 | 170 | 2.6 | 7.8 | 0.00 | 0.00 | 0.00 | 87 | 1010.0 |
| 20260506044635 | 78 | 179 | 1.7 | 7.8 | 0.00 | 0.00 | 0.00 | 87 | 1010.0 |
| 20260506043058 | 78 | 173 | 1.7 | 9.6 | 0.00 | 0.00 | 0.00 | 86 | 1009.9 |
| 20260506041559 | 78 | 0 | 1.7 | 8.7 | 0.00 | 0.00 | 0.00 | 86 | 1010.0 |
| 20260506040058 | 78 | 192 | 0.9 | 8.7 | 0.00 | 0.00 | 0.00 | 86 | 1009.8 |
| 20260506034559 | 78 | 0 | 1.7 | 7.8 | 0.00 | 0.00 | 0.00 | 85 | 1009.5 |
| 20260506033058 | 79 | 193 | 0.9 | 6.1 | 0.00 | 0.00 | 0.00 | 85 | 1009.4 |
| 20260506031600 | 79 | 177 | 1.7 | 8.7 | 0.00 | 0.00 | 0.00 | 84 | 1009.3 |
| 20260506030100 | 79 | 178 | 2.6 | 8.7 | 0.00 | 0.00 | 0.00 | 84 | 1009.2 |
| 20260506024601 | 79 | 0 | 0.9 | 8.7 | 0.00 | 0.00 | 0.00 | 83 | 1009.1 |
| 20260506023102 | 79 | 178 | 1.7 | 8.7 | 0.00 | 0.00 | 0.00 | 82 | 1008.8 |
| 20260506021610 | 79 | 186 | 2.6 | 10.4 | 0.00 | 0.00 | 0.00 | 82 | 1008.7 |
| 20260506014603 | 80 | 193 | 0.9 | 7.8 | 0.00 | 0.00 | 0.00 | 80 | 1008.5 |
| 20260506013106 | 80 | 175 | 2.6 | 10.4 | 0.00 | 0.00 | 0.00 | 79 | 1008.1 |
| 20260506011600 | 80 | 169 | 4.3 | 9.6 | 0.00 | 0.00 | 0.00 | 78 | 1008.0 |
| 20260506010115 | 80 | 179 | 3.5 | 10.4 | 0.00 | 0.00 | 0.00 | 78 | 1007.9 |
| 20260506004558 | 81 | 176 | 4.3 | 11.3 | 0.00 | 0.00 | 0.00 | 77 | 1007.9 |
| 20260506003059 | 81 | 197 | 3.5 | 12.2 | 0.00 | 0.00 | 0.00 | 76 | 1007.6 |
| 20260506001602 | 81 | 150 | 1.7 | 10.4 | 0.00 | 0.00 | 0.00 | 76 | 1007.5 |
| 20260505234609 | 82 | 188 | 3.5 | 10.4 | 0.00 | 0.00 | 0.00 | 75 | 1007.4 |
| 20260505233100 | 82 | 200 | 5.2 | 12.2 | 0.00 | 0.00 | 0.00 | 75 | 1007.5 |
| 20260505231601 | 82 | 151 | 5.2 | 11.3 | 0.00 | 0.00 | 0.00 | 75 | 1007.5 |
| 20260505224557 | 83 | 170 | 3.5 | 9.6 | 0.00 | 0.00 | 0.00 | 75 | 1007.5 |
| 20260505223058 | 84 | 0 | 0.9 | 13.0 | 0.00 | 0.00 | 0.00 | 74 | 1007.4 |
| 20260505221600 | 83 | 171 | 4.3 | 13.0 | 0.00 | 0.00 | 0.00 | 73 | 1007.6 |
| 20260505220057 | 84 | 190 | 2.6 | 8.7 | 0.00 | 0.00 | 0.00 | 72 | 1007.7 |
| 20260505214624 | 84 | 194 | 4.3 | 13.9 | 0.00 | 0.00 | 0.00 | 72 | 1007.8 |